星链-5289 (STARLINK-5289 )

导读

STARLINK-5289是美国太空探索技术公司(SpaceX)星链互联网卫星星座中的一颗卫星,于2023年1月19日发射入轨。星链项目旨在通过近地轨道卫星群提供全球高速互联网接入服务,这颗卫星加入星座后,进一步拓展了星链系统的全球覆盖能力,助力提升网络服务的稳定性与容量。

Basic Information
目录编号:
55278
目录名称:
STARLINK-5289
国际标识:
2023-010K
轨道中心:
EARTH
卫星名称:
星链-5289
卫星全名:
星链-5289 (STARLINK-5289 )
卫星状态:
在轨 (已飞行1325 天)
发射日期:
2023-01-19 UTC
国别 :
美国 (US)
星等 :
--
Orbit Information
数据来源 国际轨道数据
星历时间: 2026-09-05T12:20:07+0800
4小时前
查看轨道信息
半长轴: 6950.197km
偏心率: 0.0003719
轨道倾角: 69.999°
近地点辐角 269.903°
升交点赤经 311.827°
平近点角 90.170°
近地点: 569.475km
远地点: 574.645km
周期: 96.107分钟
每日圈数: 14.983287
Detailed Information
固有亮度:
5
最大亮度:
2.5
卫星平台:
Starlink v1.5
覆盖范围:
全球
运营商:
太空探索技术公司
运营商所在国:
美国
制造商(研发单位):
太空探索技术公司
制造商所在国:
美国
使用方式:
暂无
Satellite Introduction
星链(Starlink)计划是由太空探索技术公司(SpaceX)提出的一个巨型低轨卫星互联网星座项目,计划在2019年至2024年间在太空搭建由约1.2万颗卫星组成的“星链”网络,其中1584颗将部署在地球上空550千米处的近地轨道,并从2020年开始工作。该卫星仍在工作。
2D Orbit Map
3D Orbit Map
Orbit Altitude Analysis Chart
Orbit Inclination Analysis Chart
Orbit Comprehensive Analysis Chart
View Comprehensive Chart
Conjunction Data List
Event ID Objects TCA Miss Dist (km) Collision Risk Probability Collision Risk Index (CRI) Action
CDM_260905-225705-527806-326222
2026-09-05T
22:57:26+0000
1.138 km
极远距离
1.748576E-5 中风险 0.6
CDM_260905-151703-340905-527824
2026-09-05T
15:17:13+0000
2.108 km
极远距离
1.481598E-6 低风险 0.38